This is the latest recevied weather packets stored in our database for station/object N9CQS-13. If no packets are shown the sender has not sent any weather packets the latest 10 day(s).
| Time | Temp. | Humidity | Pressure | Rain* | Wind** | Luminosity | Snow |
|---|---|---|---|---|---|---|---|
| 1777737692 | 12.22° C | 40% | 1021.1 hPa | 0 mm | - | - | - |
| 1777737093 | 12.22° C | 40% | 1021.2 hPa | 0 mm | - | - | - |
| 1777736492 | 12.22° C | 40% | 1021.1 hPa | 0 mm | - | - | - |
| 1777735892 | 11.67° C | 40% | 1021.1 hPa | 0 mm | - | - | - |
| 1777735292 | 11.11° C | 41% | 1021.2 hPa | 0 mm | - | - | - |
| 1777734692 | 10.56° C | 43% | 1021.2 hPa | 0 mm | - | - | - |
| 1777734092 | 10.56° C | 44% | 1021.1 hPa | 0 mm | - | - | - |
| 1777733492 | 10° C | 45% | 1021.2 hPa | 0 mm | - | - | - |
| 1777732892 | 9.44° C | 49% | 1021 hPa | 0 mm | - | - | - |
| 1777732293 | 8.89° C | 51% | 1021.1 hPa | 0 mm | - | - | - |
| 1777731693 | 8.89° C | 51% | 1021.1 hPa | 0 mm | - | - | - |
| 1777731092 | 8.33° C | 55% | 1021.1 hPa | 0 mm | - | - | - |
| 1777730492 | 7.78° C | 55% | 1021 hPa | 0 mm | - | - | - |
| 1777729892 | 7.78° C | 58% | 1021.1 hPa | 0 mm | - | - | - |
| 1777729292 | 7.22° C | 56% | 1021 hPa | 0 mm | - | - | - |
| 1777728692 | 7.22° C | 61% | 1021.1 hPa | 0 mm | - | - | - |
| 1777728092 | 6.67° C | 61% | 1020.9 hPa | 0 mm | - | - | - |
| 1777727492 | 6.11° C | 62% | 1020.9 hPa | 0 mm | - | - | - |
| 1777726892 | 6.11° C | 64% | 1020.9 hPa | 0 mm | - | - | - |
| 1777726292 | 6.11° C | 67% | 1020.9 hPa | 0 mm | - | - | - |
| 1777725692 | 6.11° C | 72% | 1020.9 hPa | 0 mm | - | - | - |
| 1777725092 | 5.56° C | 72% | 1020.9 hPa | 0 mm | - | - | - |
| 1777724492 | 5.56° C | 73% | 1020.8 hPa | 0 mm | - | - | - |
| 1777723892 | 5.56° C | 74% | 1020.6 hPa | 0 mm | - | - | - |
| 1777723292 | 5° C | 75% | 1020.5 hPa | 0 mm | - | - | - |
* Rain latest hour (hover to see other rain measurements)
** Current wind speed in m/s (hover to see current wind gust speed)